P/2010 TO20 ( LINEAR-Grauer )

Japanese version
Home page
Updated on February 21, 2012

---------------------------------------------------------------------

* Profile

Discovery Date October 1, 2010 and October 19, 2011
Magnitude 19.4 mag, 19.1 mag
Discoverer Lincoln Laboratory Near-Earth Asteroid Research project, A. D. Grauer (Mount Lemmon)

* Pictures

* Orbital Elements

Epoch 2012 Feb. 3.0 TT = JDT 2455960.5
T 2008 Oct. 23.61499 TT                                 MPC
q   5.1810169            (2000.0)            P               Q
n   0.07358793     Peri.  256.65013     +0.51135230     +0.85879258
a   5.6398166      Node    44.15015     -0.76990213     +0.47410724
e   0.0813501      Incl.    2.59445     -0.38179777     +0.19415877
P  13.4
From 50 observations 2010 Oct. 1-2011 Dec. 26, mean residual 0".6.

* Magnitudes Graph

        m1 = 8.5 + 5 log d + 10.0 log r

---------------------------------------------------------------------

The orbital elements are published on M.P.E.C. 2012-D09.
The magnitudes graphs are made with Comet for Windows.

---------------------------------------------------------------------

Copyright(C) Seiichi Yoshida (comet@aerith.net). All rights reserved.